User: anonymous   Login
Location: Newark
(30.2328°N, 54.2869°E)
Time: 10:39:34
(UTC+00:00)
Language:

Hubble Space Telescope - Orbit

View from above orbital plane
View from above orbital plane
View from above satellite
View from above satellite

Ground track
Ground track

The orbit data is extracted from the following two-line orbital elements,

1 20580U 90037B   19231.90679633 +.00000310 +00000-0 +79073-5 0  9998
2 20580 028.4687 160.5340 0002877 077.4348 350.6952 15.09254844410218
Epoch (UTC): 19 August 2019 21:45:47
Eccentricity: 0.0002877
inclination: 28.4687°
perigee height: 536 km
apogee height: 540 km
right ascension of ascending node: 160.5340°
argument of perigee: 77.4348°
revolutions per day: 15.09254844
mean anomaly at epoch: 350.6952°
orbit number at epoch: 41021

The dashed part of the orbit path shows where the satellite is in the earth's shadow,  

DLR